When you browse on this site, cookies collect data to enhance your experience and personalize the content and advertising you see.
Visit our Privacy Policy to learn more. By continuing to use the site, you agree to this use of cookies and data.
  • In Spain
  • List of Countries
  • For 7 days
  • Water Temperature
  • Weather Map
  • Weather Widgets
  • user-avatar
    Login

    Hourly Weather Barnaul

    Today, 5 June, Friday

    Time Temperature Precipitation Wind Pressure Humidity
    00:00 +8°C° 0 mm 2 mps 736 mmHg 82%
    01:00 +8°C° 0 mm 2 mps 736 mmHg 85%
    02:00 +7°C° 0 mm 2 mps 736 mmHg 89%
    03:00 +6°C° 0 mm 2 mps 736 mmHg 93%
    04:00 +7°C° 0 mm 2 mps 736 mmHg 91%
    05:00 +7°C° 0 mm 3 mps 736 mmHg 89%
    06:00 +7°C° 0 mm 3 mps 736 mmHg 87%
    07:00 +8°C° 0.3 mm 3 mps 736 mmHg 83%
    08:00 +9°C° 0.3 mm 3 mps 736 mmHg 78%
    09:00 +10°C° 0.3 mm 3 mps 736 mmHg 73%
    10:00 +10°C° 0.4 mm 4 mps 736 mmHg 69%
    11:00 +11°C° 0.4 mm 4 mps 736 mmHg 65%
    12:00 +12°C° 0.4 mm 5 mps 736 mmHg 61%
    13:00 +12°C° 0.6 mm 4 mps 736 mmHg 63%
    14:00 +12°C° 0.6 mm 4 mps 736 mmHg 66%
    15:00 +12°C° 0.6 mm 4 mps 736 mmHg 68%
    16:00 +12°C° 0.6 mm 4 mps 736 mmHg 68%
    17:00 +12°C° 0.6 mm 3 mps 737 mmHg 67%
    18:00 +12°C° 0.6 mm 3 mps 737 mmHg 67%
    19:00 +11°C° 0.2 mm 3 mps 738 mmHg 73%
    20:00 +9°C° 0.2 mm 3 mps 738 mmHg 80%
    21:00 +8°C° 0.2 mm 2 mps 738 mmHg 86%
    22:00 +8°C° 0.1 mm 2 mps 739 mmHg 87%
    23:00 +8°C° 0.1 mm 2 mps 739 mmHg 88%

    Tomorrow, 6 June, Saturday

    Time Temperature Precipitation Wind Pressure Humidity
    00:00 +8°C° 0.1 mm 2 mps 740 mmHg 89%
    01:00 +8°C° 0 mm 3 mps 740 mmHg 90%
    02:00 +7°C° 0 mm 3 mps 740 mmHg 91%
    03:00 +7°C° 0 mm 3 mps 740 mmHg 92%
    04:00 +7°C° 0.2 mm 3 mps 740 mmHg 91%
    05:00 +7°C° 0.2 mm 3 mps 741 mmHg 91%
    06:00 +8°C° 0.2 mm 3 mps 741 mmHg 90%
    07:00 +7°C° 1 mm 4 mps 741 mmHg 90%
    08:00 +7°C° 1 mm 5 mps 740 mmHg 89%
    09:00 +7°C° 1 mm 6 mps 740 mmHg 88%
    10:00 +8°C° 0.6 mm 6 mps 740 mmHg 89%
    11:00 +9°C° 0.6 mm 6 mps 740 mmHg 90%
    12:00 +10°C° 0.6 mm 5 mps 740 mmHg 90%
    13:00 +13°C° 0.4 mm 6 mps 740 mmHg 84%
    14:00 +14°C° 0.4 mm 6 mps 740 mmHg 78%
    15:00 +16°C° 0.4 mm 7 mps 740 mmHg 72%
    16:00 +15°C° 0.1 mm 6 mps 740 mmHg 71%
    17:00 +15°C° 0.1 mm 6 mps 741 mmHg 70%
    18:00 +15°C° 0.1 mm 5 mps 741 mmHg 69%
    19:00 +14°C° 0.1 mm 5 mps 741 mmHg 75%
    20:00 +12°C° 0.1 mm 4 mps 741 mmHg 80%
    21:00 +11°C° 0.1 mm 3 mps 741 mmHg 86%
    22:00 +10°C° 0 mm 3 mps 742 mmHg 89%
    23:00 +9°C° 0 mm 3 mps 742 mmHg 92%

    Day after tomorrow, 7 June, Sunday

    Time Temperature Precipitation Wind Pressure Humidity
    00:00 +8°C° 0 mm 3 mps 743 mmHg 94%
    01:00 +7°C° 0 mm 2 mps 743 mmHg 95%
    02:00 +7°C° 0 mm 2 mps 743 mmHg 96%
    03:00 +6°C° 0 mm 2 mps 744 mmHg 96%
    04:00 +7°C° 0 mm 2 mps 744 mmHg 95%
    05:00 +7°C° 0 mm 2 mps 745 mmHg 94%
    06:00 +8°C° 0 mm 2 mps 745 mmHg 92%
    07:00 +9°C° 0 mm 2 mps 745 mmHg 84%
    08:00 +12°C° 0 mm 2 mps 746 mmHg 76%
    09:00 +13°C° 0 mm 3 mps 746 mmHg 68%
    10:00 +15°C° 0 mm 2 mps 746 mmHg 63%
    11:00 +17°C° 0 mm 2 mps 746 mmHg 58%
    12:00 +19°C° 0 mm 2 mps 746 mmHg 53%
    13:00 +19°C° 0.3 mm 2 mps 746 mmHg 54%
    14:00 +19°C° 0.3 mm 2 mps 745 mmHg 54%
    15:00 +20°C° 0.3 mm 3 mps 745 mmHg 55%
    16:00 +19°C° 0.6 mm 3 mps 745 mmHg 61%
    17:00 +19°C° 0.6 mm 3 mps 745 mmHg 67%
    18:00 +18°C° 0.6 mm 3 mps 745 mmHg 74%
    19:00 +16°C° 0.3 mm 2 mps 745 mmHg 77%
    20:00 +15°C° 0.3 mm 2 mps 745 mmHg 81%
    21:00 +14°C° 0.3 mm 2 mps 745 mmHg 84%
    22:00 +13°C° 0.1 mm 2 mps 745 mmHg 86%
    23:00 +13°C° 0.1 mm 2 mps 745 mmHg 87%

    8 June, Monday

    Time Temperature Precipitation Wind Pressure Humidity
    00:00 +13°C° 0.1 mm 2 mps 745 mmHg 88%
    01:00 +12°C° 0 mm 2 mps 745 mmHg 89%
    02:00 +12°C° 0 mm 2 mps 745 mmHg 89%
    03:00 +12°C° 0 mm 2 mps 745 mmHg 90%
    04:00 +12°C° 0 mm 2 mps 745 mmHg 89%
    05:00 +13°C° 0 mm 2 mps 745 mmHg 88%
    06:00 +13°C° 0 mm 2 mps 746 mmHg 87%
    07:00 +15°C° 0 mm 2 mps 746 mmHg 82%
    08:00 +16°C° 0 mm 2 mps 746 mmHg 76%
    09:00 +18°C° 0 mm 2 mps 746 mmHg 70%
    10:00 +19°C° 0.4 mm 3 mps 746 mmHg 64%
    11:00 +21°C° 0.4 mm 3 mps 746 mmHg 58%
    12:00 +22°C° 0.4 mm 3 mps 746 mmHg 52%
    13:00 +21°C° 0.2 mm 3 mps 745 mmHg 56%
    14:00 +21°C° 0.2 mm 3 mps 745 mmHg 60%
    15:00 +20°C° 0.2 mm 2 mps 745 mmHg 64%
    16:00 +20°C° 0.1 mm 2 mps 745 mmHg 65%
    17:00 +21°C° 0.1 mm 3 mps 744 mmHg 66%
    18:00 +21°C° 0.1 mm 3 mps 744 mmHg 67%
    19:00 +19°C° 0.2 mm 3 mps 744 mmHg 71%
    20:00 +18°C° 0.2 mm 3 mps 744 mmHg 76%
    21:00 +16°C° 0.2 mm 3 mps 743 mmHg 81%
    22:00 +16°C° 0.1 mm 3 mps 743 mmHg 83%
    23:00 +14°C° 0 mm 3 mps 743 mmHg 85%

    9 June, Tuesday

    Time Temperature Precipitation Wind Pressure Humidity
    00:00 +14°C° 0 mm 3 mps 742 mmHg 87%
    01:00 +13°C° 0 mm 4 mps 742 mmHg 86%
    02:00 +13°C° 0 mm 4 mps 742 mmHg 85%
    03:00 +13°C° 0 mm 4 mps 741 mmHg 85%
    04:00 +13°C° 0.3 mm 4 mps 741 mmHg 85%
    05:00 +13°C° 0.3 mm 4 mps 741 mmHg 85%
    06:00 +14°C° 0.3 mm 5 mps 741 mmHg 85%
    07:00 +14°C° 0.2 mm 5 mps 741 mmHg 86%
    08:00 +14°C° 0.2 mm 4 mps 741 mmHg 88%
    09:00 +15°C° 0.2 mm 4 mps 740 mmHg 89%
    10:00 +18°C° 0.4 mm 4 mps 741 mmHg 83%
    11:00 +20°C° 0.4 mm 4 mps 741 mmHg 77%
    12:00 +22°C° 0.4 mm 4 mps 741 mmHg 71%
    13:00 +22°C° 1.3 mm 4 mps 740 mmHg 72%
    14:00 +22°C° 1.3 mm 4 mps 740 mmHg 73%
    15:00 +22°C° 1.3 mm 4 mps 740 mmHg 74%
    16:00 +22°C° 0.6 mm 4 mps 740 mmHg 76%
    17:00 +21°C° 0.6 mm 4 mps 741 mmHg 79%
    18:00 +21°C° 0.6 mm 4 mps 741 mmHg 81%
    19:00 +19°C° 0.5 mm 3 mps 741 mmHg 85%
    20:00 +18°C° 0.5 mm 3 mps 741 mmHg 89%
    21:00 +17°C° 0.5 mm 3 mps 742 mmHg 94%
    22:00 +16°C° 0 mm 3 mps 742 mmHg 94%
    23:00 +16°C° 0 mm 3 mps 742 mmHg 95%

    10 June, Wednesday

    Time Temperature Precipitation Wind Pressure Humidity
    00:00 +14°C° 0 mm 3 mps 742 mmHg 96%
    01:00 +14°C° 0 mm 2 mps 743 mmHg 96%
    02:00 +14°C° 0 mm 2 mps 743 mmHg 95%
    03:00 +13°C° 0 mm 2 mps 743 mmHg 95%
    04:00 +14°C° 0 mm 2 mps 743 mmHg 93%
    05:00 +14°C° 0 mm 1 mps 743 mmHg 91%
    06:00 +14°C° 0 mm 1 mps 743 mmHg 89%
    07:00 +16°C° 0 mm 1 mps 743 mmHg 80%
    08:00 +19°C° 0 mm 1 mps 744 mmHg 72%
    09:00 +21°C° 0 mm 1 mps 744 mmHg 63%
    10:00 +22°C° 0 mm 1 mps 743 mmHg 58%
    11:00 +23°C° 0 mm 1 mps 743 mmHg 54%
    12:00 +24°C° 0 mm 2 mps 743 mmHg 49%
    13:00 +24°C° 0 mm 2 mps 743 mmHg 49%
    14:00 +25°C° 0 mm 2 mps 743 mmHg 50%
    15:00 +25°C° 0 mm 2 mps 742 mmHg 50%
    16:00 +25°C° 0 mm 2 mps 742 mmHg 54%
    17:00 +25°C° 0 mm 2 mps 742 mmHg 57%
    18:00 +25°C° 0 mm 2 mps 741 mmHg 60%
    19:00 +23°C° 0 mm 2 mps 741 mmHg 67%
    20:00 +21°C° 0 mm 2 mps 741 mmHg 73%
    21:00 +19°C° 0 mm 2 mps 741 mmHg 79%
    22:00 +18°C° 0 mm 2 mps 741 mmHg 81%
    23:00 +18°C° 0 mm 2 mps 740 mmHg 83%
    Show more